Location: Clabony
(12.1333°N, 61.6667°W)
Time: 07:27:10
(UTC+00:00)

Daily predictions for brighter satellites

Satellite Brightness Start Highest point End
(mag) Time Altitude Azimuth Time Altitude Azimuth Time Altitude Azimuth
USA 281 3.4 21:52:06 10° SE 21:58:23 50° ENE 22:04:40 10° N
Cosmos 1758 Rocket 3.7 21:56:12 10° N 22:00:32 82° W 22:04:50 10° S
Cosmos 1400 Rocket 3.5 21:57:40 10° SSW 22:01:45 63° W 22:05:50 10° N
Okean-O 4.4 22:00:32 10° E 22:02:16 12° ENE 22:04:00 10° NE
Cosmos 1553 Rocket 4.1 21:57:19 10° S 22:03:38 65° E 22:09:55 10° NNE
AQUARIUS 4.2 22:00:21 10° S 22:04:50 87° WSW 22:09:20 10° NNW
Cosmos 1689 Rocket 2.6 22:03:05 10° N 22:05:55 60° W 22:08:45 10° SSW
Cosmos 1992 Rocket 4.0 22:00:59 10° S 22:06:11 78° ESE 22:11:22 10° NNE
CZ-4 R/B 3.2 22:06:44 10° E 22:08:07 12° ENE 22:09:30 10° NE
Meteor 2-21 Rocket 4.4 22:02:28 10° N 22:08:32 66° E 22:14:32 10° SSE
Cosmos 1850 Rocket 4.4 22:05:42 10° NNW 22:11:00 72° WSW 22:16:18 10° S
CZ-4B R/B 3.9 22:06:13 10° S 22:11:48 63° WSW 22:17:20 10° NNW
Cosmos 220 Rocket 4.3 22:08:31 10° SSW 22:12:46 72° WNW 22:17:05 10° N
USA 276 2.0 22:09:56 10° NW 22:13:06 81° NE 22:16:17 10° SE
Cosmos 2369 3.7 22:08:46 10° SSW 22:14:30 86° ESE 22:20:13 10° NNE
H-2A R/B 4.0 22:20:06 10° ENE 22:20:06 10° ENE 22:20:15 10° ENE
Meteor 2-15 4.4 22:16:39 10° S 22:22:47 77° E 22:28:54 10° N
CZ-2D R/B 4.0 22:21:27 10° SE 22:24:49 30° ENE 22:28:09 10° NNE
Cosmos 1892 3.9 22:22:20 10° NNE 22:25:22 22° E 22:28:23 10° SE
SL-16 R/B 4.0 22:27:13 10° ESE 22:28:29 11° ESE 22:28:29 11° ESE
CZ-4B R/B 4.5 22:26:20 10° SSE 22:30:38 74° ENE 22:35:02 10° N
Cosmos 1315 Rocket 2.7 22:29:22 10° S 22:33:16 89° ESE 22:37:12 10° N
Hubble Space Telescope 0.8 22:30:19 10° NW 22:34:22 58° NNE 22:36:56 21° E
CZ-2C R/B 3.8 22:34:05 18° ENE 22:35:42 21° E 22:39:34 10° SSE
Meteor 2-1 Rocket 4.2 22:32:57 10° S 22:38:32 84° W 22:44:02 10° N
IRS-1C Rocket 4.0 22:35:46 10° SSE 22:41:00 73° ENE 22:46:14 10° N
SWIFT 2.3 22:37:05 10° WNW 22:41:19 67° NNE 22:43:29 27° E
Cosmos 1697 Rocket 4.2 22:36:58 10° SW 22:42:07 37° WNW 22:47:16 10° N
Cosmos 2227 Rocket 3.3 22:40:11 10° NNE 22:43:57 22° ENE 22:43:57 22° ENE
SL-08 R/B 4.4 22:39:49 10° N 22:45:51 65° E 22:51:52 10° SSE
Cosmos 1745 Rocket 4.2 22:43:34 10° NNE 22:49:36 46° E 22:55:38 10° SSE
Cosmos 1340 2.9 22:54:35 10° NNW 22:58:19 68° W 23:02:04 10° S
CRYOSAT 2 4.2 22:54:34 10° N 22:59:25 87° E 23:04:17 10° S
Cosmos 1386 Rocket 4.5 22:56:19 10° N 23:02:30 58° E 23:08:35 10° SSE
Cosmos 1980 Rocket 3.0 22:59:23 10° SSW 23:04:50 50° WNW 23:10:17 10° N
YAOGAN 1 2.4 23:00:54 10° SSE 23:05:11 66° ENE 23:09:27 10° N
Cosmos 1455 4.3 23:03:24 10° SW 23:06:35 27° W 23:09:48 10° NNW
GPS 2-14 Rocket1 2.8 23:03:05 10° WNW 23:07:11 59° NNE 23:07:19 59° NNE
Cosmos-2242 2.8 23:04:05 10° S 23:08:17 64° E 23:08:20 64° E
GPS 2-12 Rocket1 2.8 23:03:59 10° WNW 23:08:24 90° WNW 23:09:03 64° ESE
CSL-04 Debris 4.3 23:05:27 10° SSE 23:10:51 47° ENE 23:15:47 10° N
BREEZE-M DEB (TANK) 4.4 23:05:55 10° SSW 23:12:52 25° SSE 23:13:11 25° SE
Cosmos 968 Rocket 4.5 23:09:17 10° N 23:12:00 29° NNE 23:12:00 29° NNE
Cosmos 2315 Rocket 4.0 23:13:09 10° S 23:19:23 83° W 23:25:35 10° N
EO 1 Delta rocket 3.9 23:20:06 26° N 23:22:42 77° W 23:27:45 10° SSW
Cosmos 2297 Rocket 2.0 23:18:40 10° NNW 23:24:18 79° ENE 23:27:04 31° SSE
CZ-2C R/B 3.4 23:20:24 10° S 23:26:11 76° WSW 23:31:58 10° NNW
Delta 7925 Rocket 4.2 23:22:01 10° W 23:27:48 43° NNW 23:28:28 41° N
CZ-3B R/B 3.2 23:14:32 10° SSW 23:28:15 51° SE 23:28:24 51° SE
Cosmos 1486 Rocket 4.4 23:30:25 10° NNW 23:34:30 55° NNW 23:34:30 55° NNW
Cosmos 2322 Rocket 3.5 23:31:17 10° S 23:33:55 27° SSE 23:33:55 27° SSE
Okean-O 4.4 23:34:30 10° SSW 23:38:23 30° W 23:42:17 10° NW
Milstar 3 4.1 23:34:00 10° NW 23:39:02 23° N 23:39:02 23° N
CZ-4 R/B 3.6 23:39:37 10° SSW 23:42:51 24° W 23:46:02 10° NW
CZ-2C R/B 3.4 23:39:00 10° SW 23:40:34 21° SSW 23:40:34 21° SSW
